Regional Weather Roundup
Issued by NWS Wakefield, VA

Home | Current Version | Previous Version | Text Only | Print | Product List | Glossary On
Versions: 1 2 3 4 5 6 7 8 9 10 11 12 13 14 15 16 17 18 19 20 21 22 23 24 25 26 27 28 29 30 31 32 33 34 35 36 37 38 39 40 41 42 43 44 45 46 47 48 49 50
000
ASUS41 KAKQ 271810
RWRAKQ

REGIONAL WEATHER ROUNDUP
NATIONAL WEATHER SERVICE WAKEFIELD VA
200 PM EDT WED AUG 27 2014

Note: "fair" indicates few or no clouds below 12,000 feet with no
significant weather and/or obstructions to visibility. * = Denotes
station may not report precipitation (e.g., rain,snow,etc.),
thunder or fog.

VAZ042-051-052>054-056-271900-
NORTHERN VIRGINIA

CITY           SKY/WX    TMP DP  RH WIND       PRES   REMARKS
WASH NATIONAL  MOSUNNY   87  64  46 S10       30.00F
DULLES         MOSUNNY   85  62  46 CALM      30.02F
FORT BELVOIR   SUNNY     86  61  42 VRB1      30.01F
QUANTICO       MOSUNNY   83  66  56 S8        30.02F
FREDERICKSBRG* SUNNY     87  64  44 N3        30.01F
STAFFORD*      SUNNY     83  59  44 W3        30.06F
WARRENTON      SUNNY     88  67  50 CALM      30.02F
CULPEPER*      SUNNY    N/A N/A N/A CALM      30.02F
MANASSAS*      SUNNY     84  63  48 CALM      30.02F
LEESBURG*      SUNNY     86  66  51 W3        30.03F
WINCHESTER     PTSUNNY   82  64  54 CALM      30.04F
$$

VAZ048-049-060>072-079>083-271900-
CENTRAL AND SOUTH CENTRAL VIRGINIA...AND NORTH CENTRAL NORTH CAROLINA

CITY           SKY/WX    TMP DP  RH WIND       PRES   REMARKS
RICHMOND       MOSUNNY   87  61  41 CALM      30.01F
CHESTERFIELD*  PTCLDY   N/A N/A N/A NE9       30.03F
HANOVER        SUNNY     86  59  39 N5        30.03F
TAPPAHANNOCK*  SUNNY     85  58  40 NE7       30.02F
CHARLOTTSVILLE SUNNY     83  61  47 N5        30.05F
ORANGE*        SUNNY     82  57  42 CALM      30.05F
LOUISA*        SUNNY     84  59  42 NE5       30.03F
FARMVILLE*     SUNNY     84  52  32 NW3       30.03S
SOUTH HILL*    SUNNY     84  63  48 N6        30.08F
ROANOKE RAPIDS CLEAR     81  59  47 NE7       30.02F
RALEIGH        MOSUNNY   83  62  49 N8        30.03F
$$

VAZ088>098-271900-
SOUTHEAST VIRGINIA

CITY           SKY/WX    TMP DP  RH WIND       PRES   REMARKS
NORFOLK        PTSUNNY   78  67  68 NE9       30.00F
VIRGINIA BEACH MOSUNNY   80  68  66 NE12      29.99F
NORFOLK NAVAL  MOSUNNY   80  68  66 NE8       30.02F
WEST POINT*    MOSUNNY   86  61  42 E3        30.03F
NEWPORT NEWS   SUNNY     85  65  51 E8        30.01F
LANGLEY AFB    SUNNY     80  67  63 N6        30.01F
FORT EUSTIS    MOSUNNY   83  61  45 NE6       30.00F
WILLIAMSBURG*  SUNNY     88  63  42 NE5       30.02F
FRANKLIN*      MOSUNNY   82  64  54 N5        30.01F
WAKEFIELD      SUNNY     85  62  46 VRB3      30.02F
$$

VAZ020-022-025-037-045-271900-
WESTERN AND SOUTHWEST VIRGINIA

CITY           SKY/WX    TMP DP  RH WIND       PRES   REMARKS
STAUNTON*      SUNNY     82  61  48 NW3       30.09F
HOT SPRINGS VA SUNNY     72  56  58 CALM      30.23F
LYNCHBURG      SUNNY     81  61  50 MISG      30.09F
DANVILLE       SUNNY     84  57  39 VRB6      30.06F
MARTINSVILLE   SUNNY     84  63  50 CALM      30.10F
ROANOKE        MOSUNNY   83  60  45 N8        30.11F
BLACKSBURG     SUNNY     79  66  65 E7        30.16F
DUBLIN*        SUNNY     79  62  55 E6        30.16F
MARION*        SUNNY    N/A N/A N/A N3        30.20F
HILLSVILLE*    SUNNY     75  59  58 N6        30.18F
RICHLANDS*     CLEAR     81  56  42 N5        30.19F
WISE*          SUNNY     79  54  41 NE5       30.21S
ABINGDON*      SUNNY     81  55  40 CALM      30.16F
$$

MDZ021>025-VAZ099-100-271900-
SOUTHERN MARYLAND AND THE DELMARVA PENINSULA

CITY           SKY/WX    TMP DP  RH WIND       PRES   REMARKS
PATUXENT RIVER MOSUNNY   84  62  47 VRB7      30.00F
BAY BRIDGE APT   N/A     84  59  42 W6        30.00F
LEONARDTOWN    SUNNY     82  59  44 W5        30.02F
DOVER          MOSUNNY   84  68  58 E5        29.98F
GEORGETOWN     SUNNY     86  61  42 E12       30.00F
EASTON         SUNNY     86  66  51 CALM      30.04F
CAMBRIDGE      SUNNY     84  63  48 CALM      30.00F
SALISBURY      SUNNY     87  60  40 N3        29.99F
OCEAN CITY     SUNNY     79  67  66 E6        30.00F
WALLOPS ISLAND SUNNY     83  66  56 E7        30.01F
ACCOMACK*        N/A     81  64  57 CALM      30.00F
$$

NCZ012>017-030>032-271900-
EASTERN NORTH CAROLINA

CITY           SKY/WX    TMP DP  RH WIND       PRES   REMARKS
ELIZABETH CITY MOSUNNY   82  70  66 NE13      29.98F
AHOSKIE*       SUNNY     81  65  58 N8        30.01F
EDENTON*       MOSUNNY   83  69  61 NE6       29.98F
CURRITUCK*     MOSUNNY   80  67  65 NE12G18   30.00F
KILL DEVIL HLS CLOUDY    79  72  78 N10G21    29.97F
MANTEO         PTSUNNY   79  72  78 N18G25    29.97F
CAPE HATTERAS  MOSUNNY   81  74  79 N14G24    29.94F
GOLDSBORO      SUNNY     82  69  65 VRB3      29.99F
WASHINGTON     SUNNY     83  69  62 N12       29.98F
GREENVILLE     MOSUNNY   82  68  61 N7G17     30.02F
NEW BERN       MOSUNNY   86  70  58 N12       29.98F
WILMINGTON     SUNNY     86  68  54 N7G18     29.97F
$$

VAZ048-271900-
ELSEWHERE

CITY           SKY/WX    TMP DP  RH WIND       PRES   REMARKS
HARRISBURG PA  MOSUNNY   87  70  56 VRB5      29.98F
BALTIMORE      MOSUNNY   87  61  41 CALM      29.99F
ANNAPOLIS      SUNNY     80  68  66 SE10      29.99F
ANDREWS AFB    SUNNY     86  61  42 SW5       30.01F
WILMINGTON DE  SUNNY     86  64  47 W8        29.99F
PHILADELPHIA   MOSUNNY   87  60  40 SW9       29.97F
WILDWOOD NJ*   SUNNY     81  61  50 NW5       30.01F
ATLANTIC CITY  SUNNY     86  64  47 VRB3      29.98F
HENDERSON NC   SUNNY     81  60  49 N6        30.04F
GREENSBORO     MOSUNNY   83  56  39 CALM      30.07F
ROCKY MOUNT    SUNNY     83  57  41 N10       30.02F
FAYETTEVILLE   SUNNY     86  51  29 NE14      30.01F
CHARLOTTE      MOSUNNY   84  60  44 N8        30.08F
$$

VAZ100-271900-
MARINE

STATION/POSITION TIME  TEMP    WIND        PRES    WAVE   SWELL
                       AIR SEA DIR/SP/G            HT/PER HT/PER
                 (UTC) (F)     (DEG/KT/KT) (MB)    (FT/S) (FT/S)
44066 TX TWR #4  1800   73 76  170/  2/  4 1015.8F   5/11   5/11
CAPE MAY NJ      1800   77 80  260/  3/  6 1015.6F
LEWES DE         1800   78 76   10/  2/  3 1015.8F
15NM E FENWICK I 1700   73 74              1016.6F   4/ 8
OCEAN-CITY-INLET 1800   76 76  100/  5/  7 1015.8F
WACHAPREAGUE VA  1800   76 78   90/  7/ 11 1016.1F
THOMAS POINT MD  1800   79 79  160/  7/  8 1016.7F
GOOSES REEF MD   1800   79      CALM  /  2 1016.9F
COVE POINT MD    1800   79      10/  3/  4 1016.3F
SOLOMONS ISLAND  1800      80                N/A
BISHOPS HEAD MD  1800   78 79  260/  8/  9 1015.9F
PINEY POINT MD   1800          230/  4/  5   N/A
POTOMAC MD       1800   78     280/  4/  6 1015.9S
CAMBRIDGE MD     1800   80 78  330/  5/  8 1015.8F
LEWISETTA VA     1800   78 78  100/  2/  2 1016.1F
RAPPAHANNOCK LGT 1800          330/ 10/ 11 1016.7F
STINGRAY PT      1800   76      50/  4/  6   N/A
YORK RVR RNG VA  1800   77      50/  5/  6 1015.8F
YORKTOWN VA      1800   77 79   90/  8/  9 1016.1F
JAMESTOWN VA     1800   77     200/  4/  6   N/A
DOMINION TERM VA 1800   78     120/  3/  9 1016.4F
KIPTOPEKE VA     1800      80   90/  6/  8   N/A
CHES BAY BRIDGE  1800   75 77  360/  7/  9 1016.0S
CAPE HENRY VA    1800   74      30/ 10/ 11 1015.1F
CHESAPEAKE LGHT  1700   73      30/ 14/ 15 1017.0F
WILLOUBY STN VA  1800   75      60/  8/  9 1015.1F
S CRANEY ISL VA  1800          360/  6/  9 1016.0F
CAPE HENRY BUOY  1700      76                N/A     4/17   2/17
1ST LANDING BUOY 1800   75      60/ 10/ 12 1016.0F
CAPE CHARLES BUO 1800      76                N/A     5/17   5/17
OFFSHORE WE BUOY 1800      76                N/A     6/15   5/15
64NM E OF VA BCH 1700   77 78   30/ 16/ 19 1014.7F   7/15   7/15
DUCK PIER NC     1800   74 76  360/ 19/ 21 1014.4F
44056 DUCK FRF   1800                        N/A     5/12   2/12
OREGON INLET NC  1800   79 77  360/ 12/ 19 1014.5F
HATTERAS NC      1800   78 78   20/ 20/ 25 1014.2F
DIAMOND SHLS NC  1700   78     360/ 23/ 29 1012.3F  10/10   7/10
CAPE LOOKOUT NC  1700   82      10/ 15/ 20 1014.2F
$$



USA.gov is the U.S. government's official web portal to all federal, state and local government web resources and services.